Location: ?????????
(38.5999°N, 22.7695°E)
Time: 14:47:42
(UTC+00:00)

Cosmos 1408 - Pass Details

Date: 23 May 2024
Orbit: 364 x 378 km, 82.6° (Epoch: 13 June)

Event Time Altitude Azimuth Distance (km) Brightness Sun altitude
Exits shadow 01:23:34 18° 304° (NW) 1,004 4.1 -17.6°
Drops below altitude 10° 01:25:02 10° 332° (NNW) 1,361 5.1 -17.4°
Sets 01:27:23 0° 351° (N) 2,214 6.5 -17.1°
